Akron, CO

10:22 AM MDT on August 24, 2016 (GMT -0600)
Akron-Washington County

Weather History for KAKO - July, 2013

Change the Weather History Date:

Thursday, July 18, 2013

  Actual Average Record
Temperature  
Mean Temperature 77 °F 75 °F  
Max Temperature 93 °F 89 °F 101 °F (1963)
Min Temperature 60 °F 60 °F 49 °F (1956)
Degree Days  
Heating Degree Days 0    
Month to date heating degree days 0  
Cooling Degree Days 12    
Month to date cooling degree days 178  
Growing Degree Days 26 (Base 50)    
Moisture  
Dew Point 55 °F    
Average Humidity 54    
Maximum Humidity 84    
Minimum Humidity 23    
Precipitation  
Precipitation 0.00 in 0.09 in 2.04 in (1946)
Month to date precipitation 2.70 1.39  
Year to date precipitation 7.79 10.03  
Sea Level Pressure  
Sea Level Pressure 29.93 in    
Wind  
Wind Speed 14 mph (SSW)    
Max Wind Speed 29 mph    
Max Gust Speed 38 mph    
Visibility 10 miles    
Events      
T = Trace of Precipitation, MM = Missing Value Source: NWS Daily Summary

Daily Weather History Graph

Daily Weather History Graph

Search for Another Location

Airport or City:

Trip Planner

Search our weather history database for the weather conditions in past years. The results will help you decide how hot, cold, wet, or windy it might be!

Date:

Astronomy

Jul. 18, 2013 Rise Set
Actual Time 5:38 AM MDT 8:19 PM MDT
Civil Twilight 5:07 AM MDT 8:50 PM MDT
Nautical Twilight 4:27 AM MDT 9:30 PM MDT
Astronomical Twilight 3:42 AM MDT 10:14 PM MDT
Moon 4:18 PM MDT (7/18) 1:30 AM MDT (7/18)
Length of Visible Light 15h 43m
Length of Day
14h 40m
Waxing Gibbous, 78% of the Moon is Illuminated
Jul 18
Waxing Gibbous
Jul 22
Full
Jul 29
Last Quarter
Aug 6
New
Aug 14
First Quarter

Hourly Weather History & Observations

Time (MDT) Temp. Heat Index Dew Point Humidity Pressure Visibility Wind Dir Wind Speed Gust Speed Precip Events Conditions
12:53 AM 68.0 °F - 55.9 °F 65% 30.02 in 10.0 mi South 21.9 mph 25.3 mph N/A   Clear
1:53 AM 66.0 °F - 57.0 °F 73% 30.01 in 10.0 mi South 15.0 mph 25.3 mph N/A   Clear
2:53 AM 64.9 °F - 57.0 °F 75% 29.99 in 10.0 mi South 12.7 mph 23.0 mph N/A   Clear
3:53 AM 63.0 °F - 55.9 °F 78% 29.98 in 10.0 mi South 11.5 mph - N/A   Clear
4:53 AM 61.0 °F - 55.9 °F 83% 29.98 in 10.0 mi SSE 11.5 mph 21.9 mph N/A   Clear
5:53 AM 60.1 °F - 55.9 °F 86% 29.97 in 10.0 mi South 11.5 mph - N/A   Clear
6:53 AM 62.1 °F - 57.0 °F 84% 29.98 in 10.0 mi South 13.8 mph 24.2 mph N/A   Clear
7:53 AM 68.0 °F - 57.0 °F 68% 29.98 in 10.0 mi South 17.3 mph 25.3 mph N/A   Clear
8:53 AM 73.0 °F - 57.0 °F 57% 29.98 in 10.0 mi SSW 17.3 mph 27.6 mph N/A   Clear
9:53 AM 78.1 °F - 57.0 °F 48% 29.96 in 10.0 mi South 13.8 mph 27.6 mph N/A   Clear
10:53 AM 82.0 °F 81.7 °F 57.0 °F 42% 29.94 in 10.0 mi SSW 11.5 mph 21.9 mph N/A   Clear
11:53 AM 84.9 °F 83.6 °F 55.0 °F 36% 29.92 in 10.0 mi South 10.4 mph - N/A   Clear
12:53 PM 87.1 °F 84.9 °F 53.1 °F 31% 29.91 in 10.0 mi West 12.7 mph 18.4 mph N/A   Clear
1:53 PM 89.1 °F 86.7 °F 53.1 °F 29% 29.89 in 10.0 mi Calm Calm - N/A   Clear
2:53 PM 91.0 °F - 51.1 °F 25% 29.87 in 10.0 mi Variable 5.8 mph - N/A   Clear
3:53 PM 91.0 °F - 48.0 °F 23% 29.86 in 10.0 mi South 9.2 mph - N/A   Clear
4:53 PM 91.9 °F - 48.0 °F 22% 29.85 in 10.0 mi Variable 4.6 mph - N/A   Clear
5:53 PM 91.0 °F - 52.0 °F 26% 29.84 in 10.0 mi Variable 6.9 mph - N/A   Clear
6:53 PM 88.0 °F - 50.0 °F 27% 29.85 in 10.0 mi SSE 6.9 mph - N/A   Clear
7:53 PM 82.0 °F - 52.0 °F 35% 29.86 in 10.0 mi East 4.6 mph - N/A   Clear
8:53 PM 75.0 °F - 55.9 °F 51% 29.93 in 10.0 mi NW 17.3 mph - N/A   Partly Cloudy
9:53 PM 72.0 °F - 57.0 °F 59% 29.95 in 10.0 mi NW 16.1 mph - N/A   Clear
10:53 PM 70.0 °F - 57.0 °F 63% 29.94 in 10.0 mi NNW 13.8 mph - N/A   Clear
11:53 PM 69.1 °F - 55.9 °F 63% 29.95 in 10.0 mi NW 16.1 mph - N/A   Scattered Clouds